Flag for Canada Weather past 2 weeks in London, Ontario, Canada

Now
73 °F

Mostly cloudy.


Feels Like: 76 °F
Forecast: 61 / 78 °F
Wind: 8 mph from West

Location: London Weather Station

Current Time: Jul 26, 2014 at 1:53:41 PM

Latest Report: Jul 26, 2014 at 1:00 PM


Visibility: 15 mi

Pressure: 29.89 "Hg

Humidity: 65%

Dew point: 61 °F

Location of LondonLocation

Historic Weather in London — Graph

°F

London temperature yesterday

Maximum temperature yesterday: 73 °F (at 4:00 PM)
Minimum temperature yesterday: 48 °F (at 7:00 AM)
Average temperature yesterday: 62 °F

Past Weeks' High & Low Weather Summary

 TemperatureHumidityPressure
High82 °F (Jul 21, 5:00 PM)100% (Jul 12, 4:00 AM)30.26 "Hg (Jul 12, 4:00 AM)
Low48 °F (Jul 17, 5:00 AM)43% (Jul 17, 1:00 PM)29.66 "Hg (Jul 15, 6:00 AM)
Average66 °F78%30.01 "Hg
* Reported Jul 11 12:00 Noon — Jul 26 12:00 Noon, London, Weather by CustomWeather, © 2014

Note: Actual official high and low records may vary slightly from our data, if they occured in-between our weather recording intervals... More about our weather records

Advertising

London weather history for previous 24 hours

 ConditionsComfort  
Time TempWeatherWind HumidityBarometerVisibility
12:00 PM
Jul 26
73 °FMostly cloudy.13 mph61%29.92 "Hg15 mi
11:00 AM73 °FBroken clouds.9 mph65%29.92 "Hg15 mi
10:00 AM70 °FPartly sunny.8 mph73%29.93 "Hg15 mi
9:00 AM68 °FPartly sunny.6 mph78%29.94 "Hg15 mi
8:00 AM64 °FPartly sunny.5 mph78%29.94 "Hg15 mi
7:00 AM64 °FPassing clouds.6 mph78%29.94 "Hg15 mi
6:00 AM63 °FMostly cloudy.5 mph83%29.94 "Hg15 mi
5:00 AM64 °FPassing clouds.6 mph78%29.94 "Hg15 mi
4:00 AM64 °FPassing clouds.8 mph78%29.94 "Hg15 mi
3:00 AM64 °FPassing clouds.7 mph78%29.94 "Hg15 mi
2:00 AM66 °FPassing clouds.10 mph73%29.96 "Hg15 mi
1:00 AM66 °FOvercast.9 mph68%29.97 "Hg15 mi
12:00 AM64 °FMostly cloudy.5 mph73%29.97 "Hg15 mi
11:00 PM
Jul 25
64 °FPassing clouds.7 mph68%29.96 "Hg15 mi
10:00 PM66 °FPartly cloudy.8 mph68%29.98 "Hg15 mi
9:00 PM66 °FPartly sunny.9 mph64%29.98 "Hg15 mi
8:00 PM68 °FPartly sunny.10 mph64%29.98 "Hg15 mi
7:00 PM70 °FBroken clouds.17 mph60%29.98 "Hg15 mi
6:00 PM70 °FBroken clouds.17 mph64%29.98 "Hg15 mi
5:00 PM72 °FBroken clouds.15 mph61%29.98 "Hg15 mi
4:00 PM73 °FPartly sunny.9 mph47%30.00 "Hg15 mi
3:00 PM72 °FPartly sunny.8 mph50%30.01 "Hg15 mi
2:00 PM72 °FPartly sunny.14 mph53%30.03 "Hg15 mi
1:00 PM72 °FPartly sunny.9 mph61%30.05 "Hg15 mi
Weather by CustomWeather, © 2014

See weather overviewHow to use our weather pages